TimeMST,TemperatureF,Dew PointF,Humidity,Sea Level PressureIn,VisibilityMPH,Wind Direction,Wind SpeedMPH,Gust SpeedMPH,PrecipitationIn,Events,Conditions,WindDirDegrees,DateUTC
12:53 AM,42.1,19.9,41,29.98,10.0,WNW,15.0,-,N/A,,Clear,300,2014-02-13 07:53:00
1:53 AM,42.1,19.9,41,29.98,10.0,WNW,16.1,-,N/A,,Clear,300,2014-02-13 08:53:00
2:53 AM,43.0,19.9,40,29.96,10.0,WNW,15.0,-,N/A,,Clear,300,2014-02-13 09:53:00
3:53 AM,39.9,21.0,47,29.97,10.0,WNW,15.0,-,N/A,,Clear,300,2014-02-13 10:53:00
4:53 AM,39.9,19.9,45,29.98,10.0,NW,13.8,-,N/A,,Clear,310,2014-02-13 11:53:00
5:53 AM,39.9,19.9,45,30.00,10.0,WNW,13.8,-,N/A,,Clear,290,2014-02-13 12:53:00
6:53 AM,39.0,19.9,46,30.04,10.0,WNW,12.7,-,N/A,,Clear,290,2014-02-13 13:53:00
7:53 AM,39.9,19.9,45,30.09,10.0,WNW,11.5,-,N/A,,Clear,300,2014-02-13 14:53:00
8:53 AM,45.0,23.0,42,30.09,10.0,WNW,12.7,-,N/A,,Clear,290,2014-02-13 15:53:00
9:53 AM,46.9,23.0,39,30.10,10.0,West,16.1,-,N/A,,Clear,280,2014-02-13 16:53:00
10:53 AM,50.0,21.9,33,30.09,10.0,WNW,15.0,21.9,N/A,,Clear,290,2014-02-13 17:53:00
11:53 AM,51.1,23.0,33,30.05,10.0,WNW,18.4,-,N/A,,Clear,290,2014-02-13 18:53:00
12:53 PM,52.0,21.9,31,29.94,10.0,West,16.1,-,N/A,,Clear,280,2014-02-13 19:53:00
1:53 PM,52.0,21.9,31,29.92,10.0,WNW,23.0,33.4,N/A,,Clear,290,2014-02-13 20:53:00
2:53 PM,52.0,23.0,32,29.91,10.0,WNW,20.7,29.9,N/A,,Clear,290,2014-02-13 21:53:00
3:53 PM,48.9,24.1,38,29.95,10.0,WNW,16.1,26.5,N/A,,Partly Cloudy,290,2014-02-13 22:53:00
4:53 PM,48.0,24.1,39,29.95,10.0,WNW,19.6,-,N/A,,Clear,290,2014-02-13 23:53:00
5:53 PM,45.0,25.0,46,29.97,10.0,West,10.4,-,N/A,,Partly Cloudy,280,2014-02-14 00:53:00
6:53 PM,41.0,26.1,55,30.00,10.0,West,6.9,-,N/A,,Clear,270,2014-02-14 01:53:00
7:53 PM,39.9,26.1,58,30.01,10.0,WNW,10.4,-,N/A,,Clear,290,2014-02-14 02:53:00
8:53 PM,37.9,27.0,65,30.01,10.0,WNW,11.5,-,N/A,,Clear,300,2014-02-14 03:53:00
9:53 PM,39.0,26.1,60,30.00,10.0,NW,12.7,-,N/A,,Clear,310,2014-02-14 04:53:00
10:53 PM,41.0,27.0,57,29.96,10.0,WNW,15.0,-,N/A,,Clear,290,2014-02-14 05:53:00
11:53 PM,43.0,26.1,51,29.93,10.0,WNW,20.7,-,N/A,,Clear,300,2014-02-14 06:53:00